This is the latest recevied weather packets stored in our database for station/object AB8Y-13. If no packets are shown the sender has not sent any weather packets the latest 10 day(s).
| Time | Temp. | Humidity | Pressure | Rain* | Wind** | Luminosity | Snow |
|---|---|---|---|---|---|---|---|
| 1777042352 | 23.89° C | 54% | 1007 hPa | 0 mm | - | 279 W/m² | - |
| 1777042048 | 23.33° C | 55% | 1006.9 hPa | 0 mm | - | 686 W/m² | - |
| 1777041745 | 23.89° C | 56% | 1007.1 hPa | 0 mm | - | 169 W/m² | - |
| 1777041441 | 24.44° C | 54% | 1006.9 hPa | 0 mm | - | 246 W/m² | - |
| 1777041139 | 25° C | 54% | 1007.1 hPa | 0 mm | - | 273 W/m² | - |
| 1777040835 | 24.44° C | 52% | 1007.2 hPa | 0 mm | - | 651 W/m² | - |
| 1777040529 | 23.89° C | 52% | 1007.1 hPa | 0 mm | - | 480 W/m² | - |
| 1777040225 | 23.89° C | 53% | 1007.1 hPa | 0 mm | - | 316 W/m² | - |
| 1777039919 | 24.44° C | 51% | 1007.1 hPa | 0 mm | - | 234 W/m² | - |
| 1777039616 | 24.44° C | 51% | 1007.2 hPa | 0 mm | - | 559 W/m² | - |
| 1777039311 | 24.44° C | 51% | 1007.3 hPa | 0 mm | - | 538 W/m² | - |
| 1777039011 | 24.44° C | 52% | 1007.2 hPa | 0 mm | - | 500 W/m² | - |
| 1777038707 | 23.89° C | 50% | 1007.3 hPa | 0 mm | - | 473 W/m² | - |
| 1777038402 | 23.89° C | 58% | 1007.3 hPa | 0 mm | - | 456 W/m² | - |
| 1777038098 | 23.33° C | 52% | 1007.3 hPa | 0 mm | - | 430 W/m² | - |
| 1777037793 | 23.33° C | 53% | 1007.4 hPa | 0 mm | - | 423 W/m² | - |
| 1777037489 | 22.78° C | 55% | 1007.6 hPa | 0 mm | - | 400 W/m² | - |
| 1777037186 | 22.22° C | 55% | 1007.5 hPa | 0 mm | - | 378 W/m² | - |
| 1777036883 | 22.22° C | 57% | 1007.7 hPa | 0 mm | - | 362 W/m² | - |
| 1777036580 | 21.67° C | 56% | 1007.9 hPa | 0 mm | - | 321 W/m² | - |
| 1777036280 | 21.67° C | 55% | 1007.9 hPa | 0 mm | - | 168 W/m² | - |
| 1777035977 | 21.11° C | 57% | 1007.8 hPa | 0 mm | - | 243 W/m² | - |
| 1777035676 | 21.11° C | 58% | 1008 hPa | 0 mm | - | 243 W/m² | - |
| 1777035372 | 20.56° C | 58% | 1008 hPa | 0 mm | - | 108 W/m² | - |
| 1777035068 | 20° C | 59% | 1008.1 hPa | 0 mm | - | 260 W/m² | - |
* Rain latest hour (hover to see other rain measurements)
** Current wind speed in m/s (hover to see current wind gust speed)